Year,Month,Day,Hour,Minute,Value (Times are PST for temperature in C)
2021,10,01,00,00,12.20
2021,10,01,00,01,12.20
2021,10,01,00,02,12.20
2021,10,01,00,03,12.20
2021,10,01,00,04,12.20
2021,10,01,00,05,12.20
2021,10,01,00,06,12.20
2021,10,01,00,07,12.20
2021,10,01,00,08,12.20
2021,10,01,00,09,12.20
2021,10,01,00,10,12.20
2021,10,01,00,11,12.20
2021,10,01,00,12,12.20
2021,10,01,00,13,12.20
2021,10,01,00,14,12.20
2021,10,01,00,15,12.10
2021,10,01,00,16,12.10
2021,10,01,00,17,12.10
2021,10,01,00,18,12.10
2021,10,01,00,19,12.10
2021,10,01,00,20,12.10
2021,10,01,00,21,12.00
2021,10,01,00,22,12.00
2021,10,01,00,23,12.00
2021,10,01,00,24,12.00
2021,10,01,00,25,11.90
2021,10,01,00,26,11.90
2021,10,01,00,27,11.90
2021,10,01,00,28,11.90
2021,10,01,00,29,11.80
2021,10,01,00,30,11.80
2021,10,01,00,31,11.80
2021,10,01,00,32,11.80
2021,10,01,00,33,11.80
2021,10,01,00,34,11.70
2021,10,01,00,35,11.70
2021,10,01,00,36,11.70
2021,10,01,00,37,11.70
2021,10,01,00,38,11.60
2021,10,01,00,39,11.60
2021,10,01,00,40,11.60
2021,10,01,00,41,11.50
2021,10,01,00,42,11.50
2021,10,01,00,43,11.40
2021,10,01,00,44,11.40
2021,10,01,00,45,11.30
2021,10,01,00,46,11.30
2021,10,01,00,47,11.30
2021,10,01,00,48,11.30
2021,10,01,00,49,11.20
2021,10,01,00,50,11.20
2021,10,01,00,51,11.20
2021,10,01,00,52,11.20
2021,10,01,00,53,11.20
2021,10,01,00,54,11.20
2021,10,01,00,55,11.20
2021,10,01,00,56,11.20
2021,10,01,00,57,11.20
2021,10,01,00,58,11.20
2021,10,01,00,59,11.20
2021,10,01,01,00,11.20
2021,10,01,01,01,11.20
2021,10,01,01,02,11.20
2021,10,01,01,03,11.20
2021,10,01,01,04,11.20
2021,10,01,01,05,11.20
2021,10,01,01,06,11.10
2021,10,01,01,07,11.10
2021,10,01,01,08,11.10
2021,10,01,01,09,11.10
2021,10,01,01,10,11.10
2021,10,01,01,11,11.10
2021,10,01,01,12,11.10
2021,10,01,01,13,11.10
2021,10,01,01,14,11.10
2021,10,01,01,15,11.00
2021,10,01,01,16,11.00
2021,10,01,01,17,11.00
2021,10,01,01,18,11.00
2021,10,01,01,19,11.00
2021,10,01,01,20,10.90
2021,10,01,01,21,10.90
2021,10,01,01,22,10.90
2021,10,01,01,23,10.80
2021,10,01,01,24,10.80
2021,10,01,01,25,10.80
2021,10,01,01,26,10.70
2021,10,01,01,27,10.70
2021,10,01,01,28,10.70
2021,10,01,01,29,10.70
2021,10,01,01,30,10.70
2021,10,01,01,31,10.70
2021,10,01,01,32,10.70
2021,10,01,01,33,10.70
2021,10,01,01,34,10.70
2021,10,01,01,35,10.70
2021,10,01,01,36,10.70
2021,10,01,01,37,10.70
2021,10,01,01,38,10.70
2021,10,01,01,39,10.70
2021,10,01,01,40,10.70
2021,10,01,01,41,10.70
2021,10,01,01,42,10.70
2021,10,01,01,43,10.70
2021,10,01,01,44,10.70
2021,10,01,01,45,10.60
2021,10,01,01,46,10.60
2021,10,01,01,47,10.60
2021,10,01,01,48,10.60
2021,10,01,01,49,10.60
2021,10,01,01,50,10.60
2021,10,01,01,51,10.60
2021,10,01,01,52,10.50
2021,10,01,01,53,10.50
2021,10,01,01,54,10.50
2021,10,01,01,55,10.40
2021,10,01,01,56,10.40
2021,10,01,01,57,10.40
2021,10,01,01,58,10.40
2021,10,01,01,59,10.40
2021,10,01,02,00,10.30
2021,10,01,02,01,10.30
2021,10,01,02,02,10.30
2021,10,01,02,03,10.30
2021,10,01,02,04,10.30
2021,10,01,02,05,10.30
2021,10,01,02,06,10.30
2021,10,01,02,07,10.30
2021,10,01,02,08,10.20
2021,10,01,02,09,10.20
2021,10,01,02,10,10.20
2021,10,01,02,11,10.10
2021,10,01,02,12,10.10
2021,10,01,02,13,10.10
2021,10,01,02,14,10.00
2021,10,01,02,15,10.00
2021,10,01,02,16,10.00
2021,10,01,02,17,9.90
2021,10,01,02,18,9.90
2021,10,01,02,19,9.90
2021,10,01,02,20,9.90
2021,10,01,02,21,9.90
2021,10,01,02,22,9.90
2021,10,01,02,23,9.90
2021,10,01,02,24,9.90
2021,10,01,02,25,9.90
2021,10,01,02,26,9.90
2021,10,01,02,27,9.90
2021,10,01,02,28,9.90
2021,10,01,02,29,9.90
2021,10,01,02,30,9.90
2021,10,01,02,31,9.90
2021,10,01,02,32,9.90
2021,10,01,02,33,9.90
2021,10,01,02,34,9.90
2021,10,01,02,35,9.90
2021,10,01,02,36,9.90
2021,10,01,02,37,9.90
2021,10,01,02,38,9.90
2021,10,01,02,39,9.90
2021,10,01,02,40,9.90
2021,10,01,02,41,9.90
2021,10,01,02,42,9.90
2021,10,01,02,43,9.90
2021,10,01,02,44,9.90
2021,10,01,02,45,9.90
2021,10,01,02,46,9.90
2021,10,01,02,47,9.90
2021,10,01,02,48,9.80
2021,10,01,02,49,9.80
2021,10,01,02,50,9.80
2021,10,01,02,51,9.80
2021,10,01,02,52,9.80
2021,10,01,02,53,9.80
2021,10,01,02,54,9.80
2021,10,01,02,55,9.80
2021,10,01,02,56,9.80
2021,10,01,02,57,9.80
2021,10,01,02,58,9.80
2021,10,01,02,59,9.80
2021,10,01,03,00,9.80
2021,10,01,03,01,9.70
2021,10,01,03,02,9.70
2021,10,01,03,03,9.70
2021,10,01,03,04,9.70
2021,10,01,03,05,9.70
2021,10,01,03,06,9.80
2021,10,01,03,07,9.80
2021,10,01,03,08,9.80
2021,10,01,03,09,9.80
2021,10,01,03,10,9.80
2021,10,01,03,11,9.80
2021,10,01,03,12,9.80
2021,10,01,03,13,9.80
2021,10,01,03,14,9.80
2021,10,01,03,15,9.80
2021,10,01,03,16,9.80
2021,10,01,03,17,9.80
2021,10,01,03,18,9.80
2021,10,01,03,19,9.80
2021,10,01,03,20,9.80
2021,10,01,03,21,9.80
2021,10,01,03,22,9.80
2021,10,01,03,23,9.80
2021,10,01,03,24,9.80
2021,10,01,03,25,9.70
2021,10,01,03,26,9.70
2021,10,01,03,27,9.70
2021,10,01,03,28,9.70
2021,10,01,03,29,9.70
2021,10,01,03,30,9.70
2021,10,01,03,31,9.70
2021,10,01,03,32,9.70
2021,10,01,03,33,9.70
2021,10,01,03,34,9.70
2021,10,01,03,35,9.70
2021,10,01,03,36,9.70
2021,10,01,03,37,9.70
2021,10,01,03,38,9.70
2021,10,01,03,39,9.70
2021,10,01,03,40,9.70
2021,10,01,03,41,9.70
2021,10,01,03,42,9.70
2021,10,01,03,43,9.70
2021,10,01,03,44,9.70
2021,10,01,03,45,9.70
2021,10,01,03,46,9.70
2021,10,01,03,47,9.70
2021,10,01,03,48,9.70
2021,10,01,03,49,9.60
2021,10,01,03,50,9.70
2021,10,01,03,51,9.60
2021,10,01,03,52,9.70
2021,10,01,03,53,9.60
2021,10,01,03,54,9.60
2021,10,01,03,55,9.60
2021,10,01,03,56,9.60
2021,10,01,03,57,9.60
2021,10,01,03,58,9.60
2021,10,01,03,59,9.60
2021,10,01,04,00,9.60
2021,10,01,04,01,9.60
2021,10,01,04,02,9.60
2021,10,01,04,03,9.50
2021,10,01,04,04,9.50
2021,10,01,04,05,9.50
2021,10,01,04,06,9.40
2021,10,01,04,07,9.40
2021,10,01,04,08,9.40
2021,10,01,04,09,9.30
2021,10,01,04,10,9.30
2021,10,01,04,11,9.30
2021,10,01,04,12,9.30
2021,10,01,04,13,9.20
2021,10,01,04,14,9.20
2021,10,01,04,15,9.20
2021,10,01,04,16,9.20
2021,10,01,04,17,9.20
2021,10,01,04,18,9.20
2021,10,01,04,19,9.20
2021,10,01,04,20,9.20
2021,10,01,04,21,9.20
2021,10,01,04,22,9.20
2021,10,01,04,23,9.20
2021,10,01,04,24,9.30
2021,10,01,04,25,9.30
2021,10,01,04,26,9.30
2021,10,01,04,27,9.30
2021,10,01,04,28,9.30
2021,10,01,04,29,9.30
2021,10,01,04,30,9.30
2021,10,01,04,31,9.30
2021,10,01,04,32,9.20
2021,10,01,04,33,9.20
2021,10,01,04,34,9.20
2021,10,01,04,35,9.20
2021,10,01,04,36,9.20
2021,10,01,04,37,9.20
2021,10,01,04,38,9.20
2021,10,01,04,39,9.20
2021,10,01,04,40,9.20
2021,10,01,04,41,9.20
2021,10,01,04,42,9.20
2021,10,01,04,43,9.10
2021,10,01,04,44,9.10
2021,10,01,04,45,9.10
2021,10,01,04,46,9.10
2021,10,01,04,47,9.00
2021,10,01,04,48,9.00
2021,10,01,04,49,9.00
2021,10,01,04,50,9.00
2021,10,01,04,51,9.00
2021,10,01,04,52,9.00
2021,10,01,04,53,9.00
2021,10,01,04,54,9.00
2021,10,01,04,55,9.10
2021,10,01,04,56,9.00
2021,10,01,04,57,9.00
2021,10,01,04,58,9.00
2021,10,01,04,59,9.00
2021,10,01,05,00,9.00
2021,10,01,05,01,9.00
2021,10,01,05,02,9.00
2021,10,01,05,03,8.90
2021,10,01,05,04,8.90
2021,10,01,05,05,8.90
2021,10,01,05,06,8.80
2021,10,01,05,07,8.80
2021,10,01,05,08,8.80
2021,10,01,05,09,8.80
2021,10,01,05,10,8.80
2021,10,01,05,11,8.70
2021,10,01,05,12,8.70
2021,10,01,05,13,8.70
2021,10,01,05,14,8.70
2021,10,01,05,15,8.70
2021,10,01,05,16,8.70
2021,10,01,05,17,8.70
2021,10,01,05,18,8.60
2021,10,01,05,19,8.60
2021,10,01,05,20,8.60
2021,10,01,05,21,8.60
2021,10,01,05,22,8.60
2021,10,01,05,23,8.60
2021,10,01,05,24,8.50
2021,10,01,05,25,8.50
2021,10,01,05,26,8.50
2021,10,01,05,27,8.50
2021,10,01,05,28,8.40
2021,10,01,05,29,8.40
2021,10,01,05,30,8.40
2021,10,01,05,31,8.40
2021,10,01,05,32,8.40
2021,10,01,05,33,8.40
2021,10,01,05,34,8.40
2021,10,01,05,35,8.40
2021,10,01,05,36,8.40
2021,10,01,05,37,8.40
2021,10,01,05,38,8.40
2021,10,01,05,39,8.40
2021,10,01,05,40,8.40
2021,10,01,05,41,8.40
2021,10,01,05,42,8.40
2021,10,01,05,43,8.40
2021,10,01,05,44,8.40
2021,10,01,05,45,8.40
2021,10,01,05,46,8.40
2021,10,01,05,47,8.40
2021,10,01,05,48,8.40
2021,10,01,05,49,8.40
2021,10,01,05,50,8.40
2021,10,01,05,51,8.40
2021,10,01,05,52,8.40
2021,10,01,05,53,8.50
2021,10,01,05,54,8.50
2021,10,01,05,55,8.50
2021,10,01,05,56,8.50
2021,10,01,05,57,8.50
2021,10,01,05,58,8.50
2021,10,01,05,59,8.50
2021,10,01,06,00,8.50
2021,10,01,06,01,8.50
2021,10,01,06,02,8.50
2021,10,01,06,03,8.50
2021,10,01,06,04,8.50
2021,10,01,06,05,8.50
2021,10,01,06,06,8.40
2021,10,01,06,07,8.40
2021,10,01,06,08,8.40
2021,10,01,06,09,8.40
2021,10,01,06,10,8.30
2021,10,01,06,11,8.30
2021,10,01,06,12,8.30
2021,10,01,06,13,8.30
2021,10,01,06,14,8.30
2021,10,01,06,15,8.30
2021,10,01,06,16,8.20
2021,10,01,06,17,8.20
2021,10,01,06,18,8.20
2021,10,01,06,19,8.20
2021,10,01,06,20,8.10
2021,10,01,06,21,8.10
2021,10,01,06,22,8.10
2021,10,01,06,23,8.10
2021,10,01,06,24,8.10
2021,10,01,06,25,8.10
2021,10,01,06,26,8.00
2021,10,01,06,27,7.90
2021,10,01,06,28,7.90
2021,10,01,06,29,7.80
2021,10,01,06,30,7.80
2021,10,01,06,31,7.80
2021,10,01,06,32,7.70
2021,10,01,06,33,7.70
2021,10,01,06,34,7.70
2021,10,01,06,35,7.70
2021,10,01,06,36,7.70
2021,10,01,06,37,7.70
2021,10,01,06,38,7.70
2021,10,01,06,39,7.70
2021,10,01,06,40,7.70
2021,10,01,06,41,7.70
2021,10,01,06,42,7.60
2021,10,01,06,43,7.60
2021,10,01,06,44,7.60
2021,10,01,06,45,7.60
2021,10,01,06,46,7.60
2021,10,01,06,47,7.60
2021,10,01,06,48,7.70
2021,10,01,06,49,7.70
2021,10,01,06,50,7.70
2021,10,01,06,51,7.70
2021,10,01,06,52,7.80
2021,10,01,06,53,7.80
2021,10,01,06,54,7.80
2021,10,01,06,55,7.80
2021,10,01,06,56,7.80
2021,10,01,06,57,7.80
2021,10,01,06,58,7.80
2021,10,01,06,59,7.80
2021,10,01,07,00,7.80
2021,10,01,07,01,7.80
2021,10,01,07,02,7.80
2021,10,01,07,03,7.80
2021,10,01,07,04,7.80
2021,10,01,07,05,7.70
2021,10,01,07,06,7.70
2021,10,01,07,07,7.60
2021,10,01,07,08,7.60
2021,10,01,07,09,7.60
2021,10,01,07,10,7.60
2021,10,01,07,11,7.50
2021,10,01,07,12,7.50
2021,10,01,07,13,7.40
2021,10,01,07,14,7.40
2021,10,01,07,15,7.40
2021,10,01,07,16,7.40
2021,10,01,07,17,7.40
2021,10,01,07,18,7.40
2021,10,01,07,19,7.50
2021,10,01,07,20,7.50
2021,10,01,07,21,7.50
2021,10,01,07,22,7.50
2021,10,01,07,23,7.50
2021,10,01,07,24,7.50
2021,10,01,07,25,7.50
2021,10,01,07,26,7.50
2021,10,01,07,27,7.50
2021,10,01,07,28,7.50
2021,10,01,07,29,7.50
2021,10,01,07,30,7.50
2021,10,01,07,31,7.50
2021,10,01,07,32,7.50
2021,10,01,07,33,7.50
2021,10,01,07,34,7.50
2021,10,01,07,35,7.50
2021,10,01,07,36,7.50
2021,10,01,07,37,7.40
2021,10,01,07,38,7.40
2021,10,01,07,39,7.40
2021,10,01,07,40,7.40
2021,10,01,07,41,7.40
2021,10,01,07,42,7.40
2021,10,01,07,43,7.40
2021,10,01,07,44,7.40
2021,10,01,07,45,7.40
2021,10,01,07,46,7.30
2021,10,01,07,47,7.40
2021,10,01,07,48,7.40
2021,10,01,07,49,7.40
2021,10,01,07,50,7.40
2021,10,01,07,51,7.40
2021,10,01,07,52,7.40
2021,10,01,07,53,7.40
2021,10,01,07,54,7.40
2021,10,01,07,55,7.40
2021,10,01,07,56,7.50
2021,10,01,07,57,7.50
2021,10,01,07,58,7.50
2021,10,01,07,59,7.50
2021,10,01,08,00,7.50
2021,10,01,08,01,7.60
2021,10,01,08,02,7.60
2021,10,01,08,03,7.60
2021,10,01,08,04,7.60
2021,10,01,08,05,7.60
2021,10,01,08,06,7.60
2021,10,01,08,07,7.60
2021,10,01,08,08,7.60
2021,10,01,08,09,7.70
2021,10,01,08,10,7.70
2021,10,01,08,11,7.70
2021,10,01,08,12,7.70
2021,10,01,08,13,7.70
2021,10,01,08,14,7.70
2021,10,01,08,15,7.80
2021,10,01,08,16,7.80
2021,10,01,08,17,7.80
2021,10,01,08,18,7.80
2021,10,01,08,19,7.80
2021,10,01,08,20,7.80
2021,10,01,08,21,7.90
2021,10,01,08,22,7.90
2021,10,01,08,23,7.90
2021,10,01,08,24,8.00
2021,10,01,08,25,8.00
2021,10,01,08,26,8.00
2021,10,01,08,27,8.10
2021,10,01,08,28,8.10
2021,10,01,08,29,8.10
2021,10,01,08,30,8.10
2021,10,01,08,31,8.10
2021,10,01,08,32,8.20
2021,10,01,08,33,8.20
2021,10,01,08,34,8.20
2021,10,01,08,35,8.20
2021,10,01,08,36,8.30
2021,10,01,08,37,8.30
2021,10,01,08,38,8.30
2021,10,01,08,39,8.30
2021,10,01,08,40,8.30
2021,10,01,08,41,8.40
2021,10,01,08,42,8.40
2021,10,01,08,43,8.40
2021,10,01,08,44,8.50
2021,10,01,08,45,8.50
2021,10,01,08,46,8.50
2021,10,01,08,47,8.60
2021,10,01,08,48,8.60
2021,10,01,08,49,8.60
2021,10,01,08,50,8.70
2021,10,01,08,51,8.70
2021,10,01,08,52,8.70
2021,10,01,08,53,8.80
2021,10,01,08,54,8.80
2021,10,01,08,55,8.90
2021,10,01,08,56,8.90
2021,10,01,08,57,9.00
2021,10,01,08,58,9.00
2021,10,01,08,59,9.10
2021,10,01,09,00,9.20
2021,10,01,09,01,9.20
2021,10,01,09,02,9.30
2021,10,01,09,03,9.40
2021,10,01,09,04,9.40
2021,10,01,09,05,9.50
2021,10,01,09,06,9.60
2021,10,01,09,07,9.60
2021,10,01,09,08,9.70
2021,10,01,09,09,9.70
2021,10,01,09,10,9.70
2021,10,01,09,11,9.80
2021,10,01,09,12,9.80
2021,10,01,09,13,9.90
2021,10,01,09,14,9.90
2021,10,01,09,15,10.00
2021,10,01,09,16,10.00
2021,10,01,09,17,10.00
2021,10,01,09,18,10.10
2021,10,01,09,19,10.10
2021,10,01,09,20,10.20
2021,10,01,09,21,10.20
2021,10,01,09,22,10.20
2021,10,01,09,23,10.20
2021,10,01,09,24,10.30
2021,10,01,09,25,10.30
2021,10,01,09,26,10.30
2021,10,01,09,27,10.40
2021,10,01,09,28,10.40
2021,10,01,09,29,10.40
2021,10,01,09,30,10.40
2021,10,01,09,31,10.40
2021,10,01,09,32,10.40
2021,10,01,09,33,10.50
2021,10,01,09,34,10.50
2021,10,01,09,35,10.60
2021,10,01,09,36,10.60
2021,10,01,09,37,10.60
2021,10,01,09,38,10.60
2021,10,01,09,39,10.70
2021,10,01,09,40,10.70
2021,10,01,09,41,10.80
2021,10,01,09,42,10.80
2021,10,01,09,43,10.80
2021,10,01,09,44,10.80
2021,10,01,09,45,10.80
2021,10,01,09,46,10.90
2021,10,01,09,47,10.90
2021,10,01,09,48,10.90
2021,10,01,09,49,11.00
2021,10,01,09,50,11.00
2021,10,01,09,51,11.10
2021,10,01,09,52,11.10
2021,10,01,09,53,11.10
2021,10,01,09,54,11.20
2021,10,01,09,55,11.20
2021,10,01,09,56,11.20
2021,10,01,09,57,11.20
2021,10,01,09,58,11.30
2021,10,01,09,59,11.30
2021,10,01,10,00,11.30
2021,10,01,10,01,11.30
2021,10,01,10,02,11.30
2021,10,01,10,03,11.40
2021,10,01,10,04,11.40
2021,10,01,10,05,11.40
2021,10,01,10,06,11.40
2021,10,01,10,07,11.50
2021,10,01,10,08,11.50
2021,10,01,10,09,11.60
2021,10,01,10,10,11.60
2021,10,01,10,11,11.70
2021,10,01,10,12,11.70
2021,10,01,10,13,11.70
2021,10,01,10,14,11.80
2021,10,01,10,15,11.80
2021,10,01,10,16,11.80
2021,10,01,10,17,11.80
2021,10,01,10,18,11.90
2021,10,01,10,19,11.90
2021,10,01,10,20,11.90
2021,10,01,10,21,11.90
2021,10,01,10,22,12.00
2021,10,01,10,23,12.00
2021,10,01,10,24,12.00
2021,10,01,10,25,12.00
2021,10,01,10,26,12.00
2021,10,01,10,27,12.00
2021,10,01,10,28,12.00
2021,10,01,10,29,12.00
2021,10,01,10,30,12.10
2021,10,01,10,31,12.10
2021,10,01,10,32,12.10
2021,10,01,10,33,12.10
2021,10,01,10,34,12.10
2021,10,01,10,35,12.10
2021,10,01,10,36,12.10
2021,10,01,10,37,12.10
2021,10,01,10,38,12.20
2021,10,01,10,39,12.20
2021,10,01,10,40,12.20
2021,10,01,10,41,12.20
2021,10,01,10,42,12.20
2021,10,01,10,43,12.20
2021,10,01,10,44,12.20
2021,10,01,10,45,12.20
2021,10,01,10,46,12.10
2021,10,01,10,47,12.10
2021,10,01,10,48,12.10
2021,10,01,10,49,12.10
2021,10,01,10,50,12.10
2021,10,01,10,51,12.10
2021,10,01,10,52,12.20
2021,10,01,10,53,12.20
2021,10,01,10,54,12.20
2021,10,01,10,55,12.20
2021,10,01,10,56,12.30
2021,10,01,10,57,12.30
2021,10,01,10,58,12.30
2021,10,01,10,59,12.30
2021,10,01,11,00,12.30
2021,10,01,11,01,12.40
2021,10,01,11,02,12.40
2021,10,01,11,03,12.40
2021,10,01,11,04,12.40
2021,10,01,11,05,12.40
2021,10,01,11,06,12.50
2021,10,01,11,07,12.50
2021,10,01,11,08,12.50
2021,10,01,11,09,12.50
2021,10,01,11,10,12.50
2021,10,01,11,11,12.50
2021,10,01,11,12,12.60
2021,10,01,11,13,12.60
2021,10,01,11,14,12.60
2021,10,01,11,15,12.60
2021,10,01,11,16,12.70
2021,10,01,11,17,12.70
2021,10,01,11,18,12.70
2021,10,01,11,19,12.70
2021,10,01,11,20,12.70
2021,10,01,11,21,12.80
2021,10,01,11,22,12.80
2021,10,01,11,23,12.80
2021,10,01,11,24,12.90
2021,10,01,11,25,12.90
2021,10,01,11,26,12.90
2021,10,01,11,27,12.90
2021,10,01,11,28,12.90
2021,10,01,11,29,12.90
2021,10,01,11,30,12.90
2021,10,01,11,31,12.90
2021,10,01,11,32,12.90
2021,10,01,11,33,12.90
2021,10,01,11,34,12.90
2021,10,01,11,35,13.00
2021,10,01,11,36,13.00
2021,10,01,11,37,13.00
2021,10,01,11,38,13.00
2021,10,01,11,39,13.00
2021,10,01,11,40,13.00
2021,10,01,11,41,13.00
2021,10,01,11,42,13.00
2021,10,01,11,43,13.00
2021,10,01,11,44,13.00
2021,10,01,11,45,13.00
2021,10,01,11,46,13.10
2021,10,01,11,47,13.10
2021,10,01,11,48,13.10
2021,10,01,11,49,13.10
2021,10,01,11,50,13.20
2021,10,01,11,51,13.20
2021,10,01,11,52,13.20
2021,10,01,11,53,13.20
2021,10,01,11,54,13.10
2021,10,01,11,55,13.20
2021,10,01,11,56,13.20
2021,10,01,11,57,13.20
2021,10,01,11,58,13.20
2021,10,01,11,59,13.20
2021,10,01,12,00,13.20
2021,10,01,12,01,13.20
2021,10,01,12,02,13.20
2021,10,01,12,03,13.20
2021,10,01,12,04,13.30
2021,10,01,12,05,13.30
2021,10,01,12,06,13.30
2021,10,01,12,07,13.30
2021,10,01,12,08,13.30
2021,10,01,12,09,13.30
2021,10,01,12,10,13.30
2021,10,01,12,11,13.40
2021,10,01,12,12,13.40
2021,10,01,12,13,13.40
2021,10,01,12,14,13.40
2021,10,01,12,15,13.40
2021,10,01,12,16,13.40
2021,10,01,12,17,13.40
2021,10,01,12,18,13.40
2021,10,01,12,19,13.40
2021,10,01,12,20,13.40
2021,10,01,12,21,13.40
2021,10,01,12,22,13.40
2021,10,01,12,23,13.40
2021,10,01,12,24,13.40
2021,10,01,12,25,13.40
2021,10,01,12,26,13.40
2021,10,01,12,27,13.50
2021,10,01,12,28,13.50
2021,10,01,12,29,13.60
2021,10,01,12,30,13.50
2021,10,01,12,31,13.60
2021,10,01,12,32,13.60
2021,10,01,12,33,13.60
2021,10,01,12,34,13.60
2021,10,01,12,35,13.70
2021,10,01,12,36,13.70
2021,10,01,12,37,13.70
2021,10,01,12,38,13.80
2021,10,01,12,39,13.80
2021,10,01,12,40,13.80
2021,10,01,12,41,13.80
2021,10,01,12,42,13.80
2021,10,01,12,43,13.80
2021,10,01,12,44,13.80
2021,10,01,12,45,13.70
2021,10,01,12,46,13.70
2021,10,01,12,47,13.70
2021,10,01,12,48,13.70
2021,10,01,12,49,13.70
2021,10,01,12,50,13.60
2021,10,01,12,51,13.70
2021,10,01,12,52,13.70
2021,10,01,12,53,13.80
2021,10,01,12,54,13.80
2021,10,01,12,55,13.80
2021,10,01,12,56,13.80
2021,10,01,12,57,13.80
2021,10,01,12,58,13.90
2021,10,01,12,59,13.90
2021,10,01,13,00,13.90
2021,10,01,13,01,13.90
2021,10,01,13,02,13.90
2021,10,01,13,03,13.90
2021,10,01,13,04,13.90
2021,10,01,13,05,13.90
2021,10,01,13,06,13.90
2021,10,01,13,07,13.90
2021,10,01,13,08,13.90
2021,10,01,13,09,13.90
2021,10,01,13,10,13.90
2021,10,01,13,11,13.90
2021,10,01,13,12,13.90
2021,10,01,13,13,13.90
2021,10,01,13,14,13.90
2021,10,01,13,15,13.90
2021,10,01,13,16,13.90
2021,10,01,13,17,14.00
2021,10,01,13,18,14.00
2021,10,01,13,19,14.00
2021,10,01,13,20,14.00
2021,10,01,13,21,13.90
2021,10,01,13,22,13.80
2021,10,01,13,23,13.70
2021,10,01,13,24,13.50
2021,10,01,13,25,13.40
2021,10,01,13,26,13.30
2021,10,01,13,27,13.30
2021,10,01,13,28,13.20
2021,10,01,13,29,13.10
2021,10,01,13,30,13.10
2021,10,01,13,31,13.10
2021,10,01,13,32,13.00
2021,10,01,13,33,13.00
2021,10,01,13,34,13.00
2021,10,01,13,35,13.00
2021,10,01,13,36,13.00
2021,10,01,13,37,13.00
2021,10,01,13,38,12.90
2021,10,01,13,39,12.90
2021,10,01,13,40,12.90
2021,10,01,13,41,12.80
2021,10,01,13,42,12.70
2021,10,01,13,43,12.50
2021,10,01,13,44,12.50
2021,10,01,13,45,12.40
2021,10,01,13,46,12.20
2021,10,01,13,47,12.20
2021,10,01,13,48,12.10
2021,10,01,13,49,12.10
2021,10,01,13,50,12.10
2021,10,01,13,51,12.10
2021,10,01,13,52,12.10
2021,10,01,13,53,12.00
2021,10,01,13,54,12.00
2021,10,01,13,55,11.90
2021,10,01,13,56,11.90
2021,10,01,13,57,11.90
2021,10,01,13,58,11.90
2021,10,01,13,59,11.90
2021,10,01,14,00,11.90
2021,10,01,14,01,11.90
2021,10,01,14,02,11.80
2021,10,01,14,03,11.80
2021,10,01,14,04,11.80
2021,10,01,14,05,11.80
2021,10,01,14,06,11.80
2021,10,01,14,07,11.80
2021,10,01,14,08,11.80
2021,10,01,14,09,11.80
2021,10,01,14,10,11.80
2021,10,01,14,11,11.80
2021,10,01,14,12,11.80
2021,10,01,14,13,11.80
2021,10,01,14,14,11.80
2021,10,01,14,15,11.80
2021,10,01,14,16,11.80
2021,10,01,14,17,11.80
2021,10,01,14,18,11.80
2021,10,01,14,19,11.80
2021,10,01,14,20,11.80
2021,10,01,14,21,11.80
2021,10,01,14,22,11.80
2021,10,01,14,23,11.80
2021,10,01,14,24,11.80
2021,10,01,14,25,11.90
2021,10,01,14,26,11.80
2021,10,01,14,27,11.80
2021,10,01,14,28,11.80
2021,10,01,14,29,11.80
2021,10,01,14,30,11.70
2021,10,01,14,31,11.80
2021,10,01,14,32,11.70
2021,10,01,14,33,11.70
2021,10,01,14,34,11.70
2021,10,01,14,35,11.70
2021,10,01,14,36,11.70
2021,10,01,14,37,11.70
2021,10,01,14,38,11.80
2021,10,01,14,39,11.80
2021,10,01,14,40,11.80
2021,10,01,14,41,11.80
2021,10,01,14,42,11.80
2021,10,01,14,43,11.80
2021,10,01,14,44,11.80
2021,10,01,14,45,11.80
2021,10,01,14,46,11.80
2021,10,01,14,47,11.80
2021,10,01,14,48,11.90
2021,10,01,14,49,11.90
2021,10,01,14,50,11.90
2021,10,01,14,51,11.90
2021,10,01,14,52,11.80
2021,10,01,14,53,11.80
2021,10,01,14,54,11.80
2021,10,01,14,55,11.80
2021,10,01,14,56,11.80
2021,10,01,14,57,11.80
2021,10,01,14,58,11.80
2021,10,01,14,59,11.80
2021,10,01,15,00,11.90
2021,10,01,15,01,11.90
2021,10,01,15,02,11.90
2021,10,01,15,03,11.80
2021,10,01,15,04,11.80
2021,10,01,15,05,11.80
2021,10,01,15,06,11.90
2021,10,01,15,07,11.90
2021,10,01,15,08,11.90
2021,10,01,15,09,11.90
2021,10,01,15,10,11.90
2021,10,01,15,11,12.00
2021,10,01,15,12,12.00
2021,10,01,15,13,12.10
2021,10,01,15,14,12.10
2021,10,01,15,15,12.10
2021,10,01,15,16,12.20
2021,10,01,15,17,12.20
2021,10,01,15,18,12.20
2021,10,01,15,19,12.20
2021,10,01,15,20,12.20
2021,10,01,15,21,12.20
2021,10,01,15,22,12.20
2021,10,01,15,23,12.20
2021,10,01,15,24,12.20
2021,10,01,15,25,12.30
2021,10,01,15,26,12.20
2021,10,01,15,27,12.20
2021,10,01,15,28,12.20
2021,10,01,15,29,12.20
2021,10,01,15,30,12.30
2021,10,01,15,31,12.30
2021,10,01,15,32,12.30
2021,10,01,15,33,12.30
2021,10,01,15,34,12.40
2021,10,01,15,35,12.40
2021,10,01,15,36,12.40
2021,10,01,15,37,12.40
2021,10,01,15,38,12.40
2021,10,01,15,39,12.40
2021,10,01,15,40,12.40
2021,10,01,15,41,12.40
2021,10,01,15,42,12.40
2021,10,01,15,43,12.40
2021,10,01,15,44,12.40
2021,10,01,15,45,12.40
2021,10,01,15,46,12.50
2021,10,01,15,47,12.40
2021,10,01,15,48,12.50
2021,10,01,15,49,12.50
2021,10,01,15,50,12.50
2021,10,01,15,51,12.50
2021,10,01,15,52,12.50
2021,10,01,15,53,12.50
2021,10,01,15,54,12.50
2021,10,01,15,55,12.50
2021,10,01,15,56,12.50
2021,10,01,15,57,12.50
2021,10,01,15,58,12.50
2021,10,01,15,59,12.50
2021,10,01,16,00,12.50
2021,10,01,16,01,12.60
2021,10,01,16,02,12.60
2021,10,01,16,03,12.60
2021,10,01,16,04,12.60
2021,10,01,16,05,12.50
2021,10,01,16,06,12.50
2021,10,01,16,07,12.50
2021,10,01,16,08,12.60
2021,10,01,16,09,12.60
2021,10,01,16,10,12.60
2021,10,01,16,11,12.50
2021,10,01,16,12,12.50
2021,10,01,16,13,12.50
2021,10,01,16,14,12.50
2021,10,01,16,15,12.40
2021,10,01,16,16,12.40
2021,10,01,16,17,12.40
2021,10,01,16,18,12.40
2021,10,01,16,19,12.40
2021,10,01,16,20,12.40
2021,10,01,16,21,12.40
2021,10,01,16,22,12.40
2021,10,01,16,23,12.40
2021,10,01,16,24,12.40
2021,10,01,16,25,12.40
2021,10,01,16,26,12.40
2021,10,01,16,27,12.40
2021,10,01,16,28,12.40
2021,10,01,16,29,12.40
2021,10,01,16,30,12.40
2021,10,01,16,31,12.40
2021,10,01,16,32,12.40
2021,10,01,16,33,12.40
2021,10,01,16,34,12.40
2021,10,01,16,35,12.40
2021,10,01,16,36,12.40
2021,10,01,16,37,12.40
2021,10,01,16,38,12.40
2021,10,01,16,39,12.40
2021,10,01,16,40,12.40
2021,10,01,16,41,12.30
2021,10,01,16,42,12.30
2021,10,01,16,43,12.30
2021,10,01,16,44,12.30
2021,10,01,16,45,12.30
2021,10,01,16,46,12.30
2021,10,01,16,47,12.30
2021,10,01,16,48,12.40
2021,10,01,16,49,12.40
2021,10,01,16,50,12.40
2021,10,01,16,51,12.40
2021,10,01,16,52,12.40
2021,10,01,16,53,12.40
2021,10,01,16,54,12.40
2021,10,01,16,55,12.40
2021,10,01,16,56,12.40
2021,10,01,16,57,12.40
2021,10,01,16,58,12.40
2021,10,01,16,59,12.40
2021,10,01,17,00,12.40
2021,10,01,17,01,12.40
2021,10,01,17,02,12.40
2021,10,01,17,03,12.50
2021,10,01,17,04,12.50
2021,10,01,17,05,12.50
2021,10,01,17,06,12.50
2021,10,01,17,07,12.60
2021,10,01,17,08,12.60
2021,10,01,17,09,12.60
2021,10,01,17,10,12.60
2021,10,01,17,11,12.70
2021,10,01,17,12,12.70
2021,10,01,17,13,12.70
2021,10,01,17,14,12.70
2021,10,01,17,15,12.80
2021,10,01,17,16,12.80
2021,10,01,17,17,12.80
2021,10,01,17,18,12.80
2021,10,01,17,19,12.80
2021,10,01,17,20,12.80
2021,10,01,17,21,12.80
2021,10,01,17,22,12.80
2021,10,01,17,23,12.80
2021,10,01,17,24,12.80
2021,10,01,17,25,12.80
2021,10,01,17,26,12.80
2021,10,01,17,27,12.80
2021,10,01,17,28,12.70
2021,10,01,17,29,12.70
2021,10,01,17,30,12.70
2021,10,01,17,31,12.70
2021,10,01,17,32,12.70
2021,10,01,17,33,12.70
2021,10,01,17,34,12.70
2021,10,01,17,35,12.70
2021,10,01,17,36,12.70
2021,10,01,17,37,12.60